Date String (YYYY-MM-DD hh:mm:ss) UTC,Instrument flags,Ambient pressure (hPa),Sample flow (lpm),Bypass flow (lpm),Sample temperature (°C),Ambient temperature (°C),ASC tube jacket temperature (°C),LED temperature (°C),Box temperature (°C),Sample RH (%),Span deviation,Mass concentration (μg/m³),Mass concentration (μg/m³),Mass concentration (μg/m³)
DateTimeUTC,F1_M11,P_M11,Q1_M11,Q2_M11,T1_M11,T2_M11,T3_M11,T4_M11,T5_M11,U1_M11,ZSPAN_M11,X0_M11,X2_M11,X1_M11
2022-11-27 19:00:00,,0819.2,5.00,0.00,24.0,23.0,00.0,32.7,25.9,18.1,-001.3,0014.90,0008.54,0008.00
2022-11-27 19:01:00,,0819.2,4.99,0.00,24.0,23.0,00.0,32.8,25.9,18.1,-001.6,0014.36,0008.53,0007.99
2022-11-27 19:02:00,,0819.2,5.00,0.00,24.0,23.1,00.0,32.8,25.9,17.8,-001.3,0014.17,0008.53,0007.98
2022-11-27 19:03:00,,0819.2,5.01,0.00,24.0,23.1,00.0,32.8,25.9,17.8,-001.3,0014.26,0008.50,0007.94
2022-11-27 19:04:00,,0819.2,5.01,0.00,24.1,23.1,00.0,32.8,25.9,17.7,-000.8,0013.87,0008.46,0007.91
2022-11-27 19:05:00,,0819.2,4.98,0.00,24.1,23.1,00.0,32.8,26.0,17.6,-000.7,0013.98,0008.45,0007.89
2022-11-27 19:06:00,,0819.2,5.00,0.00,24.1,23.2,00.0,32.9,26.0,17.7,-001.2,0014.26,0008.42,0007.87
2022-11-27 19:07:00,,0819.2,5.01,0.00,24.1,23.2,00.0,32.9,26.0,17.7,-001.4,0014.99,0008.43,0007.86
2022-11-27 19:08:00,,0819.1,5.01,0.00,24.1,23.2,00.0,32.9,26.0,17.9,-001.5,0015.19,0008.41,0007.85
2022-11-27 19:09:00,,0819.1,4.99,0.00,24.2,23.2,00.0,32.9,26.0,18.0,-001.2,0015.17,0008.41,0007.86
2022-11-27 19:10:00,,0819.2,4.99,0.00,24.2,23.2,00.0,32.9,26.1,18.1,-001.6,0015.65,0008.46,0007.90
2022-11-27 19:11:00,,0819.1,4.99,0.00,24.2,23.3,00.0,33.0,26.1,18.2,-001.6,0015.73,0008.48,0007.93
2022-11-27 19:12:00,,0819.1,5.00,0.00,24.2,23.3,00.0,33.0,26.2,18.2,-001.8,0016.20,0008.49,0007.97
2022-11-27 19:13:00,,0819.2,5.01,0.00,24.3,23.3,00.0,33.0,26.2,18.1,-001.7,0016.35,0008.54,0008.01
2022-11-27 19:14:00,,0819.1,4.99,0.00,24.3,23.4,00.0,33.0,26.2,18.0,-001.5,0015.96,0008.59,0008.07
2022-11-27 19:15:00,,0819.1,4.99,0.00,24.3,23.4,00.0,33.1,26.3,17.8,-001.6,0015.98,0008.64,0008.11
2022-11-27 19:16:00,,0819.1,5.00,0.00,24.3,23.4,00.0,33.1,26.3,17.8,-001.5,0016.06,0008.67,0008.14
2022-11-27 19:17:00,,0819.1,5.02,0.00,24.4,23.4,00.0,33.1,26.3,18.0,-001.4,0016.66,0008.71,0008.18
2022-11-27 19:18:00,,0819.1,4.99,0.00,24.4,23.4,00.0,33.1,26.3,17.9,-001.3,0016.72,0008.76,0008.21
2022-11-27 19:19:00,,0819.1,4.99,0.00,24.4,23.4,00.0,33.1,26.3,17.8,-001.2,0016.99,0008.81,0008.25
2022-11-27 19:20:00,,0819.1,5.02,0.00,24.4,23.4,00.0,33.2,26.3,17.8,-001.3,0016.70,0008.84,0008.28
2022-11-27 19:21:00,,0819.1,4.99,0.00,24.4,23.4,00.0,33.2,26.4,17.7,-000.9,0015.88,0008.81,0008.30
2022-11-27 19:22:00,,0819.0,4.99,0.00,24.4,23.5,00.0,33.2,26.3,18.0,-000.3,0015.25,0008.81,0008.31
2022-11-27 19:23:00,,0819.0,5.00,0.00,24.4,23.5,00.0,33.2,26.4,17.7,0000.0,0014.71,0008.82,0008.32
2022-11-27 19:24:00,,0819.0,5.00,0.00,24.5,23.5,00.0,33.2,26.4,17.7,0000.2,0014.53,0008.86,0008.33
2022-11-27 19:25:00,,0819.0,5.01,0.00,24.5,23.5,00.0,33.3,26.4,17.5,0000.2,0014.77,0008.83,0008.33
2022-11-27 19:26:00,,0819.0,5.01,0.00,24.5,23.5,00.0,33.3,26.4,17.4,0000.0,0014.82,0008.84,0008.33
2022-11-27 19:27:00,,0819.0,4.99,0.00,24.5,23.5,00.0,33.3,26.4,17.5,0000.0,0014.75,0008.88,0008.34
2022-11-27 19:28:00,,0819.0,4.99,0.00,24.5,23.6,00.0,33.3,26.4,17.6,0000.0,0014.04,0008.92,0008.35
2022-11-27 19:29:00,,0818.9,5.00,0.00,24.5,23.6,00.0,33.3,26.5,17.8,0000.0,0014.20,0008.94,0008.35
2022-11-27 19:30:00,,0818.9,5.01,0.00,24.6,23.6,00.0,33.3,26.5,17.7,0000.0,0014.26,0008.97,0008.35
2022-11-27 19:31:00,,0818.9,5.01,0.00,24.6,23.6,00.0,33.4,26.5,17.4,0000.0,0014.35,0008.97,0008.34
2022-11-27 19:32:00,,0818.9,5.00,0.00,24.6,23.6,00.0,33.4,26.5,17.3,0000.0,0014.40,0008.99,0008.34
2022-11-27 19:33:00,,0818.9,5.00,0.00,24.6,23.6,00.0,33.4,26.5,17.3,0000.0,0014.41,0009.01,0008.32
2022-11-27 19:34:00,,0818.9,5.00,0.00,24.6,23.6,00.0,33.4,26.6,17.3,-000.4,0014.40,0009.03,0008.32
2022-11-27 19:35:00,,0818.9,5.01,0.00,24.7,23.6,00.0,33.4,26.6,17.0,-001.0,0014.27,0008.98,0008.29
2022-11-27 19:36:00,,0818.9,5.00,0.00,24.7,23.7,00.0,33.4,26.6,16.7,-001.3,0014.05,0008.95,0008.26
2022-11-27 19:37:00,,0818.9,5.00,0.00,24.7,23.7,00.0,33.5,26.6,16.9,-001.6,0013.92,0008.89,0008.24
2022-11-27 19:38:00,,0818.9,5.00,0.00,24.7,23.7,00.0,33.5,26.6,16.6,-001.6,0013.90,0008.83,0008.21
2022-11-27 19:39:00,,0818.9,5.00,0.00,24.7,23.7,00.0,33.5,26.7,16.8,-001.1,0013.77,0008.77,0008.18
2022-11-27 19:40:00,,0818.9,5.01,0.00,24.7,23.7,00.0,33.5,26.7,16.8,-001.1,0013.12,0008.73,0008.16
2022-11-27 19:41:00,,0818.9,5.00,0.00,24.7,23.7,00.0,33.5,26.7,17.1,-001.0,0012.42,0008.71,0008.16
2022-11-27 19:42:00,,0818.9,5.00,0.00,24.8,23.7,00.0,33.6,26.7,17.0,-000.5,0012.20,0008.70,0008.16
2022-11-27 19:43:00,,0818.9,5.00,0.00,24.8,23.7,00.0,33.6,26.7,16.7,-000.9,0012.12,0008.68,0008.14
2022-11-27 19:44:00,,0818.8,5.00,0.00,24.8,23.8,00.0,33.6,26.7,16.7,-000.6,0012.19,0008.64,0008.14
2022-11-27 19:45:00,,0818.8,4.99,0.00,24.8,23.8,00.0,33.6,26.7,16.6,-000.1,0012.61,0008.64,0008.15
2022-11-27 19:46:00,,0818.8,5.01,0.00,24.8,23.8,00.0,33.6,26.7,16.6,0000.1,0013.15,0008.68,0008.14
2022-11-27 19:47:00,,0818.8,5.01,0.00,24.8,23.8,00.0,33.6,26.7,16.7,0000.1,0013.16,0008.72,0008.14
2022-11-27 19:48:00,,0818.8,5.00,0.00,24.8,23.8,00.0,33.6,26.8,16.6,-000.1,0013.10,0008.76,0008.15
2022-11-27 19:49:00,,0818.8,4.99,0.00,24.9,23.9,00.0,33.7,26.8,16.6,-000.3,0012.98,0008.75,0008.14
2022-11-27 19:50:00,,0818.8,4.99,0.00,24.9,23.9,00.0,33.7,26.8,16.4,-000.6,0012.96,0008.71,0008.10
2022-11-27 19:51:00,,0818.8,5.00,0.00,24.9,23.9,00.0,33.7,26.8,16.5,-000.6,0013.39,0008.69,0008.05
2022-11-27 19:52:00,,0818.8,5.00,0.00,24.9,23.9,00.0,33.7,26.8,16.4,-000.9,0014.16,0008.61,0007.97
2022-11-27 19:53:00,,0818.7,5.00,0.00,24.9,23.9,00.0,33.7,26.8,16.5,-000.9,0013.96,0008.50,0007.90
2022-11-27 19:54:00,,0818.7,5.01,0.00,24.9,23.9,00.0,33.7,26.8,16.7,-000.5,0013.77,0008.41,0007.83
2022-11-27 19:55:00,,0818.7,5.00,0.00,25.0,23.9,00.0,33.8,26.9,16.7,-000.1,0013.50,0008.34,0007.77
2022-11-27 19:56:00,,0818.7,5.00,0.00,25.0,23.9,00.0,33.8,26.9,16.4,0000.2,0012.96,0008.28,0007.70
2022-11-27 19:57:00,,0818.6,5.00,0.00,25.0,23.9,00.0,33.8,26.9,16.2,0000.5,0012.46,0008.22,0007.67
2022-11-27 19:58:00,,0818.5,5.00,0.00,25.0,23.9,00.0,33.8,26.9,16.3,0000.8,0012.61,0008.14,0007.63
2022-11-27 19:59:00,,0818.4,5.00,0.00,25.0,23.9,00.0,33.8,26.9,16.3,0001.3,0012.65,0008.11,0007.59
